2023/07/29 00:00:00, 0.0,22.1
2023/07/29 00:10:00, 0.0,22.3
2023/07/29 00:20:00, 0.0,22.3
2023/07/29 00:30:00, 0.0,22.1
2023/07/29 00:40:00, 0.0,22.2
2023/07/29 00:50:00, 0.0,22.0
2023/07/29 01:00:00, 0.0,21.9
2023/07/29 01:10:00, 0.0,22.1
2023/07/29 01:20:00, 0.0,21.9
2023/07/29 01:30:00, 0.0,21.8
2023/07/29 01:40:00, 0.0,21.8
2023/07/29 01:50:00, 0.0,21.8
2023/07/29 02:00:00, 0.0,21.8
2023/07/29 02:10:00, 0.0,21.7
2023/07/29 02:20:00, 0.0,21.8
2023/07/29 02:30:00, 0.0,21.5
2023/07/29 02:40:00, 0.0,21.5
2023/07/29 02:50:00, 0.0,21.3
2023/07/29 03:00:00, 0.0,21.3
2023/07/29 03:10:00, 0.0,21.3
2023/07/29 03:20:00, 0.0,21.8
2023/07/29 03:30:00, 0.0,21.5
2023/07/29 03:40:00, 0.0,21.5
2023/07/29 03:50:00, 0.0,21.3
2023/07/29 04:00:00, 0.0,21.5
2023/07/29 04:10:00, 0.0,20.6
2023/07/29 04:20:00, 0.0,21.0
2023/07/29 04:30:00, 0.0,21.2
2023/07/29 04:40:00, 0.0,21.1
2023/07/29 04:50:00, 0.0,21.0
2023/07/29 05:00:00, 0.0,21.1
2023/07/29 05:10:00, 0.0,21.0
2023/07/29 05:20:00, 0.0,21.1
2023/07/29 05:30:00, 0.0,21.2
2023/07/29 05:40:00, 0.0,21.2
2023/07/29 05:50:00, 0.0,21.3
2023/07/29 06:00:00, 0.0,21.5
2023/07/29 06:10:00, 0.0,24.1
2023/07/29 06:20:00, 0.0,25.8
2023/07/29 06:30:00, 0.0,27.2
2023/07/29 06:40:00, 0.0,27.7
2023/07/29 06:50:00, 0.0,29.2
2023/07/29 07:00:00, 0.0,32.5
2023/07/29 07:10:00, 0.0,33.5
2023/07/29 07:20:00, 0.0,33.5
2023/07/29 07:30:00, 0.0,34.0
2023/07/29 07:40:00, 0.0,34.8
2023/07/29 07:50:00, 0.0,33.5
2023/07/29 08:00:00, 0.0,33.4
2023/07/29 08:10:00, 0.0,32.8
